Tracking 17631 objects as of 5-May-2016
HD Live streaming from Space Station
objects crossing your sky now

ATLAS 55E R/B

Track ATLAS 55E R/B now!
10-day predictions


NORAD ID: 16137
Int'l Code: 1985-093B
Perigee: 903.8 km
Apogee: 20,391.5 km
Inclination: 63.6 °
Period: 368.3 minutes
Semi major axis: 17018 km
RCS: 2.2883 m2 (large)
Launch date: October 9, 1985
Source: United States (US)
Launch site: AIR FORCE WESTERN TEST RANGE (AFWTR)

Note: This is a ROCKET BODY
Your satellite tracking list
Your tracking list is empty





NASA's NSSDC Master Catalog

Two Line Element Set (TLE):
1 16137U 85093B   16126.54030529  .00000288  00000-0  78960-2 0  9997
2 16137  63.5796 116.8081 5725397   0.5639 359.8505  3.91034806436644
Source of the keplerian elements: AFSPC

N2YO: 323